Flag for China Weather past 2 weeks in Kashgar, Xinjiang, China

Now
64 °F

Fog.


Feels Like: 64 °F
Forecast: 55 / 78 °F
Wind: No wind

Location: Kashi Airport

Current Time: Sep 24, 2014 at 12:51:00 AM

Latest Report: Sep 24, 2014 at 12:00 AM


Visibility: N/A

Pressure: 30.04 "Hg

Humidity: 40%

Dew point: 39 °F

Location of KashgarLocation

Historic Weather in Kashgar — Graph

°F

Kashgar temperature yesterday

Maximum temperature yesterday: 72 °F (at 6:00 PM)
Minimum temperature yesterday: 59 °F (at 7:00 AM)
Average temperature yesterday: 64 °F

Past Weeks' High & Low Weather Summary

 TemperatureHumidityPressure
High86 °F (Sep 11, 5:00 PM)88% (Sep 9, 9:00 AM)30.18 "Hg (Sep 9, 9:00 AM)
Low57 °F (Sep 9, 9:00 AM)9% (Sep 20, 4:00 PM)29.77 "Hg (Sep 11, 6:00 PM)
Average70 °F39%30.01 "Hg
* Reported Sep 8 11:00 PM — Sep 23 11:00 PM, Kashgar, Weather by CustomWeather, © 2014

Note: Actual official high and low records may vary slightly from our data, if they occured in-between our weather recording intervals... More about our weather records

Advertising

Kashgar weather history for previous 24 hours

 ConditionsComfort  
Time TempWeatherWind HumidityBarometerVisibility
11:00 PM
Sep 23
66 °FDuststorm.No wind40%30.04 "Hg1 mi
10:00 PM68 °FDuststorm.No wind40%30.01 "Hg1 mi
9:00 PM68 °FDuststorm.No wind40%30.01 "Hg1 mi
8:00 PM68 °FDuststorm.3 mph40%29.98 "Hg1 mi
7:00 PM70 °FDense fog.6 mph35%29.98 "Hg1 mi
6:00 PM72 °FDense fog.8 mph36%29.98 "Hg1 mi
5:00 PM70 °FDense fog.8 mph38%30.01 "Hg1 mi
4:00 PM70 °FDense fog.6 mph35%30.01 "Hg1 mi
3:00 PM68 °FDense fog.6 mph38%30.04 "Hg1 mi
2:00 PM66 °FDense fog.3 mph43%30.07 "Hg1 mi
1:00 PM64 °FDense fog.3 mph43%30.09 "Hg1 mi
12:00 PM63 °FDuststorm.3 mph42%30.09 "Hg1 mi
11:00 AM63 °FDuststorm.No wind42%30.09 "Hg1 mi
10:00 AM61 °FDuststorm.No wind45%30.09 "Hg1 mi
9:00 AM59 °FDuststorm.3 mph51%30.09 "Hg1 mi
8:00 AM59 °FDuststorm.3 mph51%30.09 "Hg1 mi
7:00 AM59 °FDuststorm.6 mph51%30.09 "Hg1 mi
6:00 AM61 °FDuststorm.No wind48%30.09 "Hg1 mi
5:00 AM61 °FDuststorm.No wind48%30.12 "Hg1 mi
4:00 AM61 °FFog.No wind48%30.12 "HgN/A
3:00 AM63 °FFog.3 mph42%30.12 "HgN/A
2:00 AM63 °FFog.No wind42%30.15 "HgN/A
1:00 AM63 °FFog.1 mph49%30.15 "HgN/A
12:00 AM63 °FPassing clouds.3 mph42%30.15 "Hg1 mi
Weather by CustomWeather, © 2014

See weather overviewHow to use our weather pages